This demonstration page uses our WeatherBlox Daily Observations layout. Learn more.

Left ArrowRight Arrow

39.95238, -75.16362

Hourly Observations for April 28, 2015

Temp ( °F °C ) Dew Point ( °F °C ) Humidity (%) Winds ( mph kmh ) Pressure ( in mb ) Visibility ( mi km ) Precip ( " mm )
12:54 am 00:54 Cloudy 53 11.7 34 1.1 48 48 NW 14 22 29.80 1009 10 16 0.00 0.00
1:54 am 01:54 Cloudy 52 11.1 36 2.2 55 55 NNW 16 26 29.80 1009 10 16 0.00 0.00
2:54 am 02:54 Cloudy 52 11.1 37 2.8 57 57 NW 12 19 29.80 1009 10 16 0.00 0.00
3:54 am 03:54 Cloudy 52 11.1 37 2.8 57 57 NW 10 17 29.81 1009 10 16 0.00 0.00
4:54 am 04:54 Cloudy 52 11.1 38 3.3 59 59 NW 12 19 29.80 1009 10 16 0.00 0.00
5:54 am 05:54 Mostly Cloudy 52 11.1 39 3.9 61 61 NW 13 20 29.81 1010 10 16 0.00 0.00
6:54 am 06:54 Mostly Sunny 52 11.1 39 3.9 61 61 NW 9 15 29.83 1010 10 16 0.00 0.00
7:54 am 07:54 Mostly Sunny 53 11.7 39 3.9 59 59 NNW 16 26 29.84 1011 10 16 0.00 0.00
8:54 am 08:54 Mostly Sunny 56 13.3 39 3.9 53 53 NNW 15 24 29.85 1011 10 16 0.00 0.00
9:54 am 09:54 Partly Cloudy 59 15 38 3.3 46 46 NNW 22 35 29.85 1011 10 16 0.00 0.00
10:54 am 10:54 Partly Cloudy 60 15.6 39 3.9 46 46 NNW 18 30 29.86 1011 10 16 0.00 0.00
11:54 am 11:54 Partly Cloudy 64 17.8 38 3.3 38 38 NW 18 30 29.84 1011 10 16 0.00 0.00
12:54 pm 12:54 Partly Cloudy 66 18.9 38 3.3 36 36 NNW 16 26 29.83 1010 10 16 0.00 0.00
1:54 pm 13:54 Partly Cloudy 66 18.9 36 2.2 33 33 NNW 21 33 29.81 1010 10 16 0.00 0.00
2:54 pm 14:54 Partly Cloudy 69 20.6 37 2.8 31 31 N 18 30 29.79 1009 10 16 0.00 0.00
3:54 pm 15:54 Partly Cloudy 69 20.6 36 2.2 30 30 NNW 18 30 29.77 1008 10 16 0.00 0.00
4:54 pm 16:54 Mostly Cloudy 69 20.6 35 1.7 29 29 N 16 26 29.77 1008 10 16 0.00 0.00
5:54 pm 17:54 Partly Cloudy 70 21.1 36 2.2 29 29 NNW 16 26 29.76 1008 10 16 0.00 0.00
6:54 pm 18:54 Partly Cloudy 70 21.1 35 1.7 28 28 NNW 15 24 29.76 1008 10 16 0.00 0.00
7:54 pm 19:54 Mostly Clear 67 19.4 35 1.7 31 31 NNW 9 15 29.76 1008 10 16 0.00 0.00
8:54 pm 20:54 Mostly Clear 65 18.3 36 2.2 34 34 N 10 17 29.78 1008 10 16 0.00 0.00
9:54 pm 21:54 Clear 65 18.3 36 2.2 34 34 NW 6 9 29.80 1009 10 16 0.00 0.00
10:54 pm 22:54 Clear 61 16.1 37 2.8 41 41 NW 6 9 29.80 1009 10 16 0.00 0.00
11:54 pm 23:54 Clear 60 15.6 37 2.8 42 42 N 8 13 29.81 1009 10 16 0.00 0.00

Powered by AerisWeather